Le Mars, IA

4:27 PM CST on November 11, 2019 (GMT -0600)
Le Mars Municipal

Weather History for KLRJ - September, 2019

Change the Weather History Date:

Friday, September 13, 2019

  Actual Average Record
Temperature  
Mean Temperature 62 °F -  
Max Temperature 71 °F 75 °F 95 °F (1998)
Min Temperature 53 °F 53 °F 33 °F (2014)
Degree Days  
Heating Degree Days 3    
Growing Degree Days 12 (Base 50)    
Moisture  
Dew Point 54 °F    
Average Humidity 82    
Maximum Humidity 100    
Minimum Humidity 53    
Precipitation  
Precipitation 0.00 in - - ()
Sea Level Pressure  
Sea Level Pressure 30.09 in    
Wind  
Wind Speed 10 mph (West)    
Max Wind Speed 17 mph    
Max Gust Speed 29 mph    
Visibility 10 miles    
Events      
Averages and records for this station are not official NWS values.
T = Trace of Precipitation, MM = Missing Value Source: NWS Daily Summary

Daily Weather History Graph

Daily Weather History Graph

Search for Another Location

Airport or City:

Astronomy

Sep. 13, 2019 Rise Set
Actual Time 7:02 AM CDT 7:38 PM CDT
Civil Twilight 6:33 AM CDT 8:06 PM CDT
Nautical Twilight 5:59 AM CDT 8:40 PM CDT
Astronomical Twilight 5:25 AM CDT 9:15 PM CDT
Moon 7:54 PM CDT (9/13) 6:17 AM CDT (9/13)
Length of Visible Light 13h 33m
Length of Day
12h 36m
Full, 100% of the Moon is Illuminated
Sep 13
Full
Sep 13
Full
Sep 21
Last Quarter
Sep 28
New
Oct 5
First Quarter

Hourly Weather History & Observations

Time (CDT) Temp. Dew Point Humidity Pressure Visibility Wind Dir Wind Speed Gust Speed Precip Events Conditions
12:15 AM 60.8 °F 59.0 °F 94% 29.99 in 10.0 mi West 12.7 mph 21.9 mph N/A   Mostly Cloudy
12:35 AM 59.0 °F 57.2 °F 94% 29.99 in 10.0 mi West 10.4 mph - N/A   Clear
12:55 AM 59.0 °F 57.2 °F 94% 30.00 in 10.0 mi West 11.5 mph - N/A   Clear
1:15 AM 59.0 °F 57.2 °F 94% 30.00 in 10.0 mi WSW 6.9 mph - N/A   Scattered Clouds
1:35 AM 59.0 °F 57.2 °F 94% 30.01 in 10.0 mi West 15.0 mph - N/A   Mostly Cloudy
1:55 AM 59.0 °F 53.6 °F 82% 30.02 in 10.0 mi West 11.5 mph - N/A   Mostly Cloudy
2:15 AM 59.0 °F 53.6 °F 82% 30.02 in 10.0 mi West 6.9 mph 13.8 mph N/A   Overcast
2:35 AM 59.0 °F 55.4 °F 88% 30.01 in 10.0 mi WNW 11.5 mph 28.8 mph N/A   Overcast
2:55 AM 57.2 °F 55.4 °F 94% 30.01 in 10.0 mi West 11.5 mph 18.4 mph N/A   Mostly Cloudy
3:15 AM 57.2 °F 55.4 °F 94% 30.01 in 10.0 mi West 8.1 mph - N/A   Mostly Cloudy
3:35 AM 57.2 °F 55.4 °F 94% 30.01 in 10.0 mi West 5.8 mph - N/A   Mostly Cloudy
3:55 AM 57.2 °F 53.6 °F 88% 30.01 in 10.0 mi West 15.0 mph 21.9 mph N/A   Scattered Clouds
4:15 AM 55.4 °F 51.8 °F 88% 30.01 in 10.0 mi West 12.7 mph 23.0 mph N/A   Partly Cloudy
4:35 AM 55.4 °F 51.8 °F 88% 30.02 in 10.0 mi West 12.7 mph 21.9 mph N/A   Clear
4:55 AM 55.4 °F 50.0 °F 82% 30.03 in - West 13.8 mph 20.7 mph N/A   Scattered Clouds
5:15 AM 55.4 °F 51.8 °F 88% 30.03 in 10.0 mi West 11.5 mph - N/A   Overcast
5:35 AM 55.4 °F 51.8 °F 88% 30.04 in 10.0 mi West 8.1 mph - N/A   Overcast
5:55 AM 55.4 °F 51.8 °F 88% 30.04 in 10.0 mi West 10.4 mph - N/A   Overcast
6:15 AM 55.4 °F 51.8 °F 88% 30.05 in 10.0 mi West 13.8 mph 23.0 mph N/A   Overcast
6:35 AM 55.4 °F 50.0 °F 82% 30.06 in 10.0 mi West 10.4 mph 21.9 mph N/A   Mostly Cloudy
6:55 AM 55.4 °F 50.0 °F 82% 30.07 in 10.0 mi West 9.2 mph 17.3 mph N/A   Mostly Cloudy
7:15 AM 53.6 °F 50.0 °F 88% 30.08 in 10.0 mi West 11.5 mph 18.4 mph N/A   Mostly Cloudy
7:35 AM 53.6 °F 50.0 °F 88% 30.09 in 10.0 mi West 9.2 mph - N/A   Partly Cloudy
7:55 AM 53.6 °F 50.0 °F 88% 30.09 in 10.0 mi West 10.4 mph 16.1 mph N/A   Clear
8:15 AM 55.4 °F 51.8 °F 88% 30.10 in 10.0 mi West 11.5 mph - N/A   Clear
8:35 AM 55.4 °F 51.8 °F 88% 30.10 in 10.0 mi West 12.7 mph - N/A   Clear
8:55 AM 55.4 °F 50.0 °F 82% 30.11 in 10.0 mi West 16.1 mph 24.2 mph N/A   Scattered Clouds
9:15 AM 55.4 °F 50.0 °F 82% 30.13 in 10.0 mi West 16.1 mph 23.0 mph N/A   Mostly Cloudy
9:35 AM 55.4 °F 50.0 °F 82% 30.14 in 10.0 mi West 17.3 mph 23.0 mph N/A   Overcast
9:55 AM 57.2 °F 50.0 °F 77% 30.14 in 10.0 mi West 16.1 mph 24.2 mph N/A   Overcast
10:15 AM 57.2 °F 51.8 °F 82% 30.15 in 10.0 mi West 16.1 mph 24.2 mph N/A   Overcast
10:35 AM 57.2 °F 51.8 °F 82% 30.16 in 10.0 mi West 15.0 mph 21.9 mph N/A   Overcast
11:15 AM 59.0 °F 50.0 °F 72% 30.17 in 10.0 mi WNW 12.7 mph 20.7 mph N/A   Overcast
11:35 AM 60.8 °F 51.8 °F 72% 30.17 in 10.0 mi West 16.1 mph - N/A   Overcast
11:55 AM 60.8 °F 51.8 °F 72% 30.17 in 10.0 mi West 15.0 mph 20.7 mph N/A   Overcast
12:15 PM 60.8 °F 51.8 °F 72% 30.16 in 10.0 mi West 11.5 mph 18.4 mph N/A   Overcast
12:35 PM 62.6 °F 51.8 °F 68% 30.16 in 10.0 mi West 12.7 mph 21.9 mph N/A   Mostly Cloudy
12:55 PM 64.4 °F 53.6 °F 68% 30.15 in 10.0 mi West 13.8 mph 21.9 mph N/A   Mostly Cloudy
1:15 PM 64.4 °F 53.6 °F 68% 30.15 in 10.0 mi West 10.4 mph 20.7 mph N/A   Mostly Cloudy
1:35 PM 66.2 °F 53.6 °F 64% 30.14 in 10.0 mi West 17.3 mph - N/A   Mostly Cloudy
1:55 PM 66.2 °F 53.6 °F 64% 30.13 in 10.0 mi West 12.7 mph - N/A   Scattered Clouds
2:15 PM 66.2 °F 53.6 °F 64% 30.13 in 10.0 mi West 16.1 mph 21.9 mph N/A   Partly Cloudy
2:35 PM 68.0 °F 53.6 °F 60% 30.12 in 10.0 mi West 16.1 mph 21.9 mph N/A   Partly Cloudy
2:55 PM 69.8 °F 53.6 °F 56% 30.12 in 10.0 mi West 13.8 mph 19.6 mph N/A   Partly Cloudy
3:15 PM 69.8 °F 55.4 °F 60% 30.11 in 10.0 mi West 17.3 mph - N/A   Partly Cloudy
3:35 PM 69.8 °F 55.4 °F 60% 30.11 in 10.0 mi West 16.1 mph 23.0 mph N/A   Clear
3:55 PM 69.8 °F 55.4 °F 60% 30.10 in 10.0 mi West 11.5 mph 19.6 mph N/A   Clear
4:35 PM 71.6 °F 55.4 °F 57% 30.10 in 10.0 mi West 12.7 mph 20.7 mph N/A   Clear
4:55 PM 71.6 °F 53.6 °F 53% 30.10 in 10.0 mi West 15.0 mph 24.2 mph N/A   Clear
5:15 PM 71.6 °F 55.4 °F 57% 30.09 in 10.0 mi West 12.7 mph 18.4 mph N/A   Clear
5:35 PM 71.6 °F 55.4 °F 57% 30.10 in 10.0 mi West 11.5 mph 17.3 mph N/A   Clear
5:55 PM 71.6 °F 55.4 °F 57% 30.10 in 10.0 mi West 8.1 mph 13.8 mph N/A   Clear
6:15 PM 69.8 °F 55.4 °F 60% 30.10 in 10.0 mi West 5.8 mph - N/A   Clear
6:35 PM 69.8 °F 57.2 °F 64% 30.09 in 10.0 mi Calm Calm - N/A   Clear
6:55 PM 68.0 °F 59.0 °F 73% 30.09 in 10.0 mi Calm Calm - N/A   Clear
7:15 PM 66.2 °F 60.8 °F 83% 30.09 in 10.0 mi Calm Calm - N/A   Clear
7:35 PM 64.4 °F 60.8 °F 88% 30.10 in 10.0 mi Calm Calm - N/A   Clear
7:55 PM 62.6 °F 60.8 °F 94% 30.10 in 10.0 mi Calm Calm - N/A   Clear
8:15 PM 60.8 °F 60.8 °F 100% 30.10 in 10.0 mi Calm Calm - N/A   Clear
8:35 PM 60.8 °F 60.8 °F 100% 30.11 in 10.0 mi Calm Calm - N/A   Clear
8:55 PM 59.0 °F 59.0 °F 100% 30.11 in 10.0 mi Calm Calm - N/A   Clear
9:15 PM 59.0 °F 59.0 °F 100% 30.11 in 10.0 mi Calm Calm - N/A   Clear
9:35 PM 57.2 °F 57.2 °F 100% 30.12 in 10.0 mi Calm Calm - N/A   Clear
9:55 PM 57.2 °F 57.2 °F 100% 30.12 in 10.0 mi Calm Calm - N/A   Clear
10:15 PM 57.2 °F 57.2 °F 100% 30.13 in 10.0 mi Calm Calm - N/A   Clear
10:35 PM 57.2 °F 57.2 °F 100% 30.13 in 10.0 mi Calm Calm - N/A   Clear
10:55 PM 57.2 °F 57.2 °F 100% 30.12 in 10.0 mi Calm Calm - N/A   Clear
11:15 PM 57.2 °F 55.4 °F 94% 30.12 in 10.0 mi Calm Calm - N/A   Clear
11:35 PM 55.4 °F 55.4 °F 100% 30.12 in 10.0 mi Calm Calm - N/A   Clear
11:55 PM 55.4 °F 55.4 °F 100% 30.12 in 8.0 mi Calm Calm - N/A   Clear